Find Starlink 4743

NORAD ID: 53787 Int'l Des: 2022-111 Owner: SPXS Country: US Constellation: starlink operational
LEOCIRCULAR

現在のビュー

3D地球を読み込み中...

About Starlink 4743

Starlink 4743 (NORAD 53787) is a starlink constellation satellite (v1.5) launched Sep 11, 2022 by SPXS of US. It operates in LEO, CIRCULAR orbit with a mass of 305.00 kg.

Starlink 4743について

説明を読み込み中...

次回通過

Passes for default location (London). Set your location on the main map for personalized predictions.

高度履歴

Loading altitude history...

軌道要素

1 53787U 22111Q 26167.35579412 .00000124 00000-0 25889-4 0 9998
2 53787 53.1607 190.9397 0001044 77.9817 282.1292 15.08829948208594
Epoch: Jun 16, 2026 • Age: 11 hours

現在のステータス

高度 547.2 km
速度 7.59 km/s
衛星直下点 -24.85°S, 29.31°W
打ち上げ日 Sep 11, 2022
運用期間 3.7 years
タイプ internet

技術仕様

分類 Payload
質量 305.00 kg
乾燥質量 290.00 kg
総質量 305.00 kg
長さ 0.20 m
直径 2.80 m
スパン 9.00 m
形状 Box + pan
製造者 SPXS
バスタイプ Starlink
フェーズステータス In Orbit
所有者/国 SPXS/US

Most Searched